Back to catalog

OPS 4682 DEB

AlivePO
NORAD 55122·DEBRIS·🇺🇸 United States

Launched Apr 3, 1965 from Vandenberg Space Force Base

Loading…

Next Passes (next 24 hours)

TLE

FreshSource: Space-Track

Epoch: Sep 12, 2026, 14:44 UTC

1 55122U 65027HM  26255.61389747  .00000001  00000-0 -20712-4 0  9998
2 55122  90.2481  14.8533 0034789 208.0607 166.4761 13.03251924602873

Track OPS 4682 DEB in real time with AllMySat

Download on the App Store